Weather in Yulovo

Russia / Ulyanovsk Oblast     53°57′48″N   46°28′40″E
temp.,
°C
wind,
m/s
gust,
m/s
humid.,
%
clouds,
%
prec.,
mm/h
press.,
hPa
HPBL,
m
24 may, tue
tue2401:000ssw23935 0.0 100548
04:000ssw3129141 0.0 1005280
07:00+5sw4127925 0.0 1004411
10:00+10w476687 0.2 10041178
13:00+11w5866100 1.1 10041329
16:00+11wnw4852100 1.5 10051494
19:00+8nw2875100 0.2 1007747
22:00+5wnw2596100 0.7 1008595
25 may, wed
wed2501:00+4nw2297100 1.0 1008571
04:00+2wnw3598100 2.1 1009430
07:00+2nw369583 0.3 1010455
10:00+5nw457793 0.6 10111131
13:00+7wnw455889 0.3 10121345
16:00+9wnw465698 0.6 10131508
19:00+7wnw477118 0.4 10141027
22:00+3wsw26905 0.4 1015112
26 may, thu
thu2601:00+1wsw23925 0.0 101551
04:00+1sw23935 0.0 101662
07:00+5sw367562 0.0 1015229
10:00+10sw465316 0.0 10141551
13:00+12sw4749100 0.0 10141950
16:00+11sw387366 0.3 10131134
19:00+13sw376724 0.2 10111014
22:00+9s41284100 0.3 1011327
27 may, fri
fri2701:00+10s41381100 0.1 1009467
04:00+9sse51493100 0.9 1006627
07:00+9sse71596100 2.1 1003924
10:00+10ssw51195100 4.6 1001931
13:00+9wsw61196100 1.1 1003949
16:00+13wsw61080100 1.8 10031366
19:00+11wsw4109287 1.4 1005733
22:00+9wsw310989 1.6 1007402
28 may, sat
sat2801:00+8sw3109857 0.0 1008285
04:00+7ssw399882 0.0 1009214
07:00+9ssw41194100 0.0 1009332
10:00+15ssw6126990 0.0 1008949
13:00+19ssw8145746 0.0 10071695
16:00+18ssw71768100 0.1 10071710
19:00+13w31197100 1.7 1009626
22:00+9sw3997100 1.7 1012318